Regional Weather Roundup
Issued by NWS

Home | Current Version | Previous Version | Text Only | Print | Product List | Glossary Off
Versions: 1 2 3 4 5 6 7 8 9 10 11 12 13 14 15 16 17 18 19 20 21 22 23 24 25 26 27 28 29 30 31 32 33 34 35 36 37 38 39 40 41 42 43 44 45 46 47 48 49 50

000
ASUS43 KDTX 282210
RWRMI
MICHIGAN HOURLY REGIONAL WEATHER ROUNDUP
NATIONAL WEATHER SERVICE DETROIT/PONTIAC MI
600 PM EDT THU JUL 28 2016

NOTE: "FAIR" INDICATES FEW OR NO CLOUDS BELOW 12,000 FEET WITH NO
SIGNIFICANT WEATHER AND/OR OBSTRUCTION TO VISIBILITY.

MIZ047>049-052>055-059>063-066>070-074>076-081>083-282300-
SOUTHEAST LOWER MICHIGAN

CITY           SKY/WX    TMP DP  RH WIND       PRES   REMARKS
ADRIAN         CLOUDY    82  67  60 NW5       29.88S
ALMA           SUNNY     82  66  58 N10       29.93R
ANN ARBOR      MOSUNNY   86  63  45 N6        29.87S
BAD AXE        SUNNY     76  61  59 NE13      29.95R
CARO           SUNNY     80  65  58 N10       29.92R
DETROIT CITY   MOSUNNY   83  65  54 E9        29.87F
DETROIT        PTSUNNY   85  62  46 NE8       29.87S
FLINT          MOSUNNY   88  62  41 E12       29.90S
GROSSE ILE     CLOUDY    85  66  52 E9        29.86S
HILLSDALE      MOSUNNY   83  64  52 CALM      29.89S
HOWELL         MOSUNNY   84  62  47 N6        29.89S

CITY           SKY/WX    TMP DP  RH WIND       PRES   REMARKS
JACKSON        MOSUNNY   85  65  51 NE9       29.89S
LAMBERTVILLE   PTSUNNY   83  69  61 E6        29.87S
LANSING        SUNNY     85  64  49 VRB6      29.90S
LAPEER         FAIR      82  60  46 E5        29.91S
MASON          SUNNY     83  63  49 NE5       29.90R
MONROE         PTSUNNY   83  69  61 SE6       29.85F
MT. CLEMENS    PTSUNNY   82  64  55 NE10      29.87S
PONTIAC        PTSUNNY   82  62  50 NE10      29.89S
PORT HOPE        N/A     75  66  73 VRB5      29.94R
PORT HURON     MOSUNNY   77  63  61 VRB9      29.90S
TRI CITIES     PTSUNNY   78  66  66 NE13      29.94S
MIDLAND        FAIR      80  61  52 NE7       29.93S
TROY           PTSUNNY   85  56  36 NE6       29.90S
SAGINAW HB     PTSUNNY   77  63  61 N13       29.93R
$$
MIZ043>046-050>051-056>058-064>065-071>073-077>080-282300-
SOUTHWEST LOWER MICHIGAN

CITY           SKY/WX    TMP DP  RH WIND       PRES   REMARKS
BATTLE CREEK   CLOUDY    81  65  58 NE5       29.91R
BENTON HARBOR  CLOUDY    81  66  60 E7        29.91R
BIG RAPIDS     LGT RAIN  77  67  70 NE3       29.94R
COLDWATER      SUNNY     83  63  49 N3        29.90R
FREMONT        RAIN      67  67 100 E5        29.95F
HOLLAND        CLOUDY    71  65  81 SE9       29.93R
GRAND RAPIDS   PTSUNNY   81  67  62 NE8       29.91R
IONIA          FAIR      82  64  55 N6        29.90R
KALAMAZOO      PTSUNNY   82  64  54 NE3       29.90R
LUDINGTON      CLOUDY    75  65  71 CALM      29.93S
MARSHALL       SUNNY     82  64  54 CALM      29.89R
MOUNT PLEASANT SUNNY     80  60  49 E7        29.93S
MUSKEGON       CLOUDY    74  67  78 NE9       29.93S
SOUTH HAVEN    CLOUDY    79  68  70 S5        29.91R
$$
MIZ016>042-282300-
NORTHERN LOWER MICHIGAN

CITY           SKY/WX    TMP DP  RH WIND       PRES   REMARKS
ALPENA         SUNNY     80  54  40 NE8       29.97S
BEAVER ISLAND  CLOUDY    77  55  46 N8        29.99S
BELLAIRE       SUNNY     80  57  46 N8        29.95S
CADILLAC       CLOUDY    75  61  62 E5        29.97R
CHARLEVOIX     SUNNY     74  63  67 N12       30.00S
FRANKFORT      CLOUDY    72  61  70 N6        29.95S
GAYLORD        MOSUNNY   78  55  44 NE14G21   29.98S
GRAYLING       CLOUDY    79  58  49 N7        29.97S
HARBOR SPRINGS SUNNY     78  55  46 E10       29.97F
HOUGHTON LAKE  PTSUNNY   78  61  55 CALM      29.96F
MANISTEE       PTSUNNY   77  65  66 N6        29.94R
OSCODA         SUNNY     72  61  67 NE9       29.95S
PELLSTON       SUNNY     79  53  40 E10       29.98S
ROGERS CITY    SUNNY     73  58  60 N5        29.99S
TRAVERSE CITY  PTSUNNY   76  61  59 N9        29.94S
$$
MIZ007>008-015-282300-
EASTERN UPPER MICHIGAN

CITY           SKY/WX    TMP DP  RH WIND       PRES   REMARKS
KINROSS        SUNNY     74  53  48 N13       30.00S
MACKINAC ISLAN SUNNY     76  56  49 CALM      29.98S
NEWBERRY       SUNNY     72  50  46 N7        30.01F
S. S. MARIE    SUNNY     74  55  51 NW12      29.99S
MUNISING         N/A     67  57  70 N14       30.05S
$$
MIZ004>006-011>014-085-282300-
CENTRAL UPPER MICHIGAN

CITY           SKY/WX    TMP DP  RH WIND       PRES   REMARKS
MANISTIQUE     MOSUNNY   75  55  50 N12       30.00S
ESCANABA       CLOUDY    75  54  46 N12G18    29.99S
MENOMINEE        N/A    N/A N/A N/A MISG        N/A
SAWYER-GWINN   SUNNY     64  54  68 NE16      30.07F
$$
MIZ001>003-009>011-084-282300-
WESTERN UPPER MICHIGAN

CITY           SKY/WX    TMP DP  RH WIND       PRES   REMARKS
IRON MOUNTAIN  MOSUNNY   74  51  44 N10       30.02S
HOUGHTON       SUNNY     69  52  54 SE9       30.08F
COPPER HARBOR    N/A     67  55  65 N5        30.08F
IRONWOOD       CLOUDY    70  54  56 NE6       30.04S
$$

ABBREVIATIONS USED IN REMARKS
   TC - TEMPERATURE IN CELSIUS
  WCI - WIND CHILL INDEX
   HX - HEAT INDEX
  VSB - VISIBILITY





USA.gov is the U.S. government's official web portal to all federal, state and local government web resources and services.